sat.trackr.live / text

‹ back to catalog

STARLINK-3055

NORAD 49137 · 2021-082H

PAYLOAD ACTIVE UNKNOWN

§ Identity

Operator
Country
US
Launch date
2021-09-14
Launch site
AFWTR
Launch vehicle
Mass (kg)
RCS (m²)

Purposes: comms

External: N2YO · Heavens-Above · Gunter

§ Orbital elements

Epoch: 2026-09-08T21:38:48.559488Z

Period
96.16 min
Inclination
69.9994°
Eccentricity
0.0003255
Mean motion
14.97501181 rev/d
Perigee alt
572.4 km
Apogee alt
576.9 km
Semi-major
6,952.8 km
B*
4.6068e-4
RAAN
173.8794°
Arg perigee
267.5587°
Mean anomaly
92.5199°
Rev number
27,388

§ Raw data

STARLINK-30551 49137U 21082H   26251.90195092  .00005292  00000+0  46068-3 0  99922 49137  69.9994 173.8794 0003255 267.5587  92.5199 14.97501181273886

JSON: /api/v1/satellites/49137 · /tle

For live sub-satellite position, see the globe view (requires WebGL).

§ Visibility from observer

Set your observer location to see the next 7 days of passes ≥ 10°. The values pass through the URL so the page stays shareable.

No JS? Fill the form by hand. The geolocation button needs JavaScript.